This is the latest recevied weather packets stored in our database for station/object IK3ZGB. If no packets are shown the sender has not sent any weather packets the latest 10 day(s).
| Time | Temp. | Humidity | Pressure | Rain* | Wind** | Luminosity | Snow |
|---|---|---|---|---|---|---|---|
| 1777710526 | 25° C | 48% | 1025.9 hPa | - | - | - | - |
| 1777709925 | 25° C | 49% | 1025.8 hPa | - | - | - | - |
| 1777709324 | 25° C | 49% | 1026 hPa | - | - | - | - |
| 1777708725 | 24.44° C | 49% | 1026.2 hPa | - | - | - | - |
| 1777708126 | 24.44° C | 48% | 1026.5 hPa | - | - | - | - |
| 1777707525 | 24.44° C | 49% | 1026.4 hPa | - | - | - | - |
| 1777706925 | 23.89° C | 49% | 1026.7 hPa | - | - | - | - |
| 1777706324 | 23.33° C | 49% | 1026.8 hPa | - | - | - | - |
| 1777705725 | 23.33° C | 49% | 1026.6 hPa | - | - | - | - |
| 1777705125 | 21.67° C | 48% | 1026.6 hPa | - | - | - | - |
| 1777704526 | 22.22° C | 48% | 1026.8 hPa | - | - | - | - |
| 1777703924 | 22.22° C | 48% | 1026.9 hPa | - | - | - | - |
| 1777703326 | 22.22° C | 48% | 1026.8 hPa | - | - | - | - |
| 1777702724 | 21.11° C | 49% | 1026.9 hPa | - | - | - | - |
| 1777702124 | 20.56° C | 49% | 1027 hPa | - | - | - | - |
| 1777701524 | 23.89° C | 47% | 1027 hPa | - | - | - | - |
| 1777700926 | 26.11° C | 46% | 1027.5 hPa | - | - | - | - |
| 1777700325 | 25° C | 47% | 1027.5 hPa | - | - | - | - |
| 1777699726 | 23.33° C | 49% | 1027.9 hPa | - | - | - | - |
| 1777699125 | 18.89° C | 52% | 1028 hPa | - | - | - | - |
| 1777698526 | 16.67° C | 56% | 1028.8 hPa | - | - | - | - |
| 1777697925 | 15.56° C | 58% | 1028.8 hPa | - | - | - | - |
| 1777697325 | 14.44° C | 60% | 1028.8 hPa | - | - | - | - |
| 1777696724 | 13.33° C | 62% | 1028.6 hPa | - | - | - | - |
| 1777696124 | 13.33° C | 63% | 1028.3 hPa | - | - | - | - |
* Rain since midnight (hover to see other rain measurements)
** Current wind speed in m/s (hover to see current wind gust speed)